Location: Newark
(42.7133°N, 87.7910°W)
Time: 16:46:19
(UTC+00:00)

Vanguard 1 Rocket - All Passes

Search period start: 15 September 2019 00:00
Search period end: 25 September 2019 00:00
Orbit: 652 x 4225 km, 34.3° (Epoch: 15 September)

Date Brightness Start Highest point End Pass type
(mag) Time Alt. Az. Time Alt. Az. Time Alt. Az.
15 Sep - 00:28:02 10° SW 00:44:37 40° SSE 00:53:52 10° E visible
15 Sep - 02:58:35 10° WSW 03:11:18 51° S 03:18:02 10° ESE visible
15 Sep - 05:28:58 10° W 05:36:06 31° SSW 05:40:45 10° SE visible
15 Sep - 20:54:53 10° SSE 21:03:16 13° SE 21:10:24 10° ESE daylight
15 Sep - 23:14:26 10° SSW 23:31:58 34° SSE 23:42:38 10° E daylight
16 Sep - 01:43:59 10° WSW 01:59:34 50° S 02:07:41 10° E visible
16 Sep - 04:15:12 10° W 04:25:20 44° SSW 04:31:02 10° SE visible
16 Sep - 06:45:55 10° WSW 06:49:04 14° SW 06:51:41 10° S night (unlit)
16 Sep - 22:01:59 10° SSW 22:18:56 27° SSE 22:30:29 10° E daylight
17 Sep - 00:29:19 10° SW 00:47:19 47° SSE 00:57:02 10° E visible
17 Sep - 03:00:49 10° WSW 03:14:04 52° S 03:21:01 10° ESE visible
17 Sep - 05:31:45 10° W 05:38:43 27° SSW 05:43:19 10° SSE visible
17 Sep - 20:51:36 10° S 21:05:41 19° SE 21:16:40 10° ESE daylight
17 Sep - 23:15:07 10° SW 23:34:33 40° SSE 23:45:57 10° E daylight
18 Sep - 01:45:55 10° WSW 02:02:19 55° S 02:10:42 10° ESE visible
18 Sep - 04:17:42 10° W 04:28:01 41° SSW 04:33:51 10° SE visible
18 Sep - 06:50:57 10° SW 06:51:27 10° SW 06:51:56 10° SW night (unlit)
18 Sep - 19:46:49 10° SSE 19:52:23 11° SE 19:57:33 10° ESE daylight
18 Sep - 22:01:55 10° SSW 22:21:22 33° SSE 22:34:09 10° E daylight
19 Sep - 00:30:51 10° WSW 00:49:58 52° S 01:00:07 10° E visible
19 Sep - 03:03:06 10° W 03:16:49 52° S 03:23:56 10° ESE visible
19 Sep - 05:34:39 10° W 05:41:12 23° SW 05:45:41 10° SSE visible
19 Sep - 20:50:18 10° S 21:07:58 25° SE 21:21:11 10° E daylight
19 Sep - 23:16:10 10° SW 23:37:05 47° SSE 23:49:06 10° E daylight
20 Sep - 01:47:57 10° WSW 02:05:01 58° S 02:13:41 10° ESE visible
20 Sep - 04:20:14 10° W 04:30:37 37° SSW 04:36:34 10° SE visible
20 Sep - 19:41:29 10° SSE 19:54:34 17° SE 20:05:46 10° ESE daylight
20 Sep - 22:02:22 10° SSW 22:23:45 40° SSE 22:37:31 10° E daylight
21 Sep - 00:32:34 10° WSW 00:52:36 57° S 01:03:07 10° E visible
21 Sep - 03:05:25 10° W 03:19:29 50° SSW 03:26:48 10° ESE visible
21 Sep - 05:37:47 10° W 05:43:33 18° SW 05:47:44 10° S visible
21 Sep - 20:49:58 10° SSW 21:10:10 32° SE 21:24:59 10° E daylight
21 Sep - 23:17:30 10° SW 23:39:36 53° SSE 23:52:08 10° E daylight
22 Sep - 01:50:04 10° W 02:07:41 59° S 02:16:37 10° ESE visible
22 Sep - 04:22:50 10° W 04:33:06 33° SSW 04:39:08 10° SSE visible
22 Sep - 19:39:33 10° S 19:56:37 23° SE 20:10:50 10° E daylight
22 Sep - 22:03:15 10° SW 22:26:06 46° SSE 22:40:39 10° E daylight
23 Sep - 00:34:27 10° WSW 00:55:12 61° S 01:06:04 10° E visible
23 Sep - 03:07:46 10° W 03:22:03 47° SSW 03:29:35 10° SE visible
23 Sep - 05:41:22 10° WSW 05:45:47 14° SW 05:49:16 10° SSW visible
23 Sep - 18:33:14 10° SSE 18:43:19 14° SE 18:52:45 10° ESE daylight
23 Sep - 20:50:15 10° SSW 21:12:19 38° SSE 21:28:23 10° E daylight
23 Sep - 23:19:04 10° WSW 23:42:04 58° SSE 23:55:07 10° E daylight
24 Sep - 01:52:14 10° W 02:10:17 58° SSW 02:19:30 10° ESE visible
24 Sep - 04:25:31 10° W 04:35:27 28° SW 04:41:31 10° SSE visible
24 Sep - 19:38:55 10° S 19:58:34 29° SE 20:14:53 10° E daylight
24 Sep - 22:04:28 10° SW 22:28:24 52° SSE 22:43:39 10° E daylight
